Mid Delta Regional Airport Greenville US
ICAO: KGLH
IATA: GLH
Category: Medium
Scheduled Services: Yes

Elevation: 131 ft
TransAlt. 18000 ft.

Airport Communications:
ASOS:125.525
MEMPHIS CNTR:135.875
CTAF:119
GND:121.8
GREENVILLE TWR:119
UNICOM:122.95

KGLH Zoom In..

If you have problems with the map follow the link
https://www.worldairports.se/pages/airport.php?
ICAO=KGLH

Runways:

(A) RW 18L length 8001 ft width 150 ft
ILS 109.10 / hdg 177

(B) RW 18R length 7019 ft width 150 ft
---- / hdg 177

(C) RW 36L length 7019 ft width 150 ft
---- / hdg 357

(D) RW 36R length 8001 ft width 150 ft
---- / hdg 357

Location; KGLH
Day. 16 / Time. 02.53 Zulu
* Altimeter: 30.19
* Temperature: 02° c. 35.6°f.
* Wind from: 170° Speed 04 kn.
Dewpoint: -01° c.
Visibility: 10 Statute Miles.
Clouds: Clear (automated report).

KGLH 160253Z AUTO 17004KT 10SM CLR 02/M01 A3019 RMK AO2 SLP234 T00221011 53001


Wind From 170°
Speed 04 kn.

 
 
jpsmedia.com for Web Design worldairports.se 2018   terms of use